Stations météo

réclame
Mon MeteoGroup
Jerez de los Caballeros, Espagne (8337): Température de l'air & dewpoint: 15.02.2018 02:00:00 - 21.02.2018 02:00:00 (CET)Jerez de los Caballeros, Espagne (8337): Vitesse du vent & gusts: 15.02.2018 02:00:00 - 21.02.2018 02:00:00 (CET)Jerez de los Caballeros, Espagne (8337): Direction du vent: 15.02.2018 02:00:00 - 21.02.2018 02:00:00 (CET)Jerez de los Caballeros, Espagne (8337): reduced air pressure: 15.02.2018 02:00:00 - 21.02.2018 02:00:00 (CET)Jerez de los Caballeros, Espagne (8337): visibility: 15.02.2018 02:00:00 - 21.02.2018 02:00:00 (CET)Jerez de los Caballeros, Espagne (8337): Ensoleillement: 15.02.2018 02:00:00 - 21.02.2018 02:00:00 (CET)Jerez de los Caballeros, Espagne (8337): Quantités de précipitations: 15.02.2018 02:00:00 - 21.02.2018 02:00:00 (CET)
Date & Time tt [°C] td [°C] ff [km/h] ff [knt] fx [km/h] fx [knt] dd ppp [hPa] vv [km] sd [min] rr [mm]
21.02.2018 02:00:00 - - - - - - - - - - -
21.02.2018 01:00:00 8,7 3,0 4 2 6 4 E 1015,4 20 0 -
21.02.2018 00:00:00 10,1 3,2 4 2 7 4 ENE 1015,6 20 0 0,0
20.02.2018 23:00:00 11,0 3,0 2 1 8 5 SSE 1015,7 20 0 0,0
20.02.2018 22:00:00 11,4 3,2 7 4 10 5 ESE 1015,8 20 0 0,0
20.02.2018 21:00:00 13,1 3,2 8 5 17 9 ESE 1015,5 20 0 0,0
20.02.2018 20:00:00 14,8 2,7 11 6 17 9 NNW 1015,5 20 0 0,0
20.02.2018 19:00:00 16,2 2,3 13 7 24 13 NNW 1015,3 20 59 -
20.02.2018 18:00:00 17,5 1,5 15 8 23 12 NNW 1015,0 20 58 0,0
20.02.2018 17:00:00 19,9 2,7 8 4 28 15 SW 1014,7 20 60 0,0
20.02.2018 16:00:00 18,9 2,3 10 5 29 16 ESE 1015,3 20 60 0,0
20.02.2018 15:00:00 18,5 3,0 9 5 22 12 E 1016,1 20 60 0,0
20.02.2018 14:00:00 17,2 3,0 16 9 26 14 ENE 1017,3 20 60 0,0
20.02.2018 13:00:00 16,5 4,1 13 7 22 12 ENE 1018,1 20 60 -
20.02.2018 12:00:00 14,6 5,1 13 7 18 10 E 1018,6 20 60 0,0
20.02.2018 11:00:00 11,0 3,2 12 7 16 8 ENE 1019,9 20 60 0,0
20.02.2018 10:00:00 7,7 3,2 11 6 18 10 ENE 1020,4 20 60 0,0
20.02.2018 09:00:00 4,4 1,5 12 7 16 9 E 1020,5 20 43 0,0
20.02.2018 08:00:00 3,8 0,9 6 3 11 6 ESE 1020,2 15 0 0,0
20.02.2018 07:00:00 3,6 0,6 6 3 18 10 E 1020,0 16 0 -
20.02.2018 06:00:00 4,7 1,3 13 7 18 10 E 1019,6 11 0 0,0
20.02.2018 05:00:00 4,7 1,3 13 7 18 10 E 1019,5 11 0 0,0
20.02.2018 04:00:00 5,7 1,5 5 3 13 7 E 1019,6 20 0 0,0
20.02.2018 03:00:00 5,1 1,5 11 6 15 8 E 1019,8 20 0 0,0
20.02.2018 02:00:00 6,5 1,7 7 4 11 6 E 1019,5 20 0 0,0
20.02.2018 01:00:00 7,5 2,1 5 3 7 4 ENE 1019,6 20 0 -
20.02.2018 00:00:00 9,2 2,1 5 3 8 4 E 1019,3 20 0 0,0
19.02.2018 23:00:00 9,6 1,9 5 3 9 5 E 1019,2 20 0 0,0
19.02.2018 22:00:00 10,4 2,1 6 3 12 6 ESE 1019,0 20 0 0,0
19.02.2018 21:00:00 11,7 2,1 6 4 22 12 E 1018,7 20 0 0,0
19.02.2018 20:00:00 12,8 2,1 16 9 23 12 N 1018,2 20 0 0,0
19.02.2018 19:00:00 14,4 0,9 16 9 27 15 N 1017,7 20 51 -
19.02.2018 18:00:00 15,5 0,9 14 8 28 15 N 1017,4 20 36 0,0
19.02.2018 17:00:00 15,3 1,1 17 9 27 15 N 1017,5 20 11 0,0
19.02.2018 16:00:00 16,6 1,5 16 9 28 15 NE 1017,3 20 50 0,0
19.02.2018 15:00:00 16,7 1,9 18 10 34 18 ENE 1017,6 20 60 0,0
19.02.2018 14:00:00 16,2 1,9 14 8 32 17 ENE 1018,3 20 60 0,0
19.02.2018 13:00:00 15,1 2,7 15 8 27 14 NE 1019,1 20 60 -
19.02.2018 12:00:00 - - - - - - - - - - -
19.02.2018 11:00:00 10,6 0,4 8 5 13 7 E 1020,2 20 41 0,0
19.02.2018 10:00:00 8,2 0,4 6 3 12 7 E 1020,6 20 40 0,0
19.02.2018 09:00:00 5,9 -1,7 9 5 12 6 ENE 1020,8 20 8 0,0
19.02.2018 08:00:00 4,3 -1,2 9 5 14 7 E 1020,8 20 0 0,0
19.02.2018 07:00:00 6,1 -2,2 8 5 14 8 E 1020,3 16 0 -
19.02.2018 06:00:00 6,7 -3,0 10 5 19 10 ENE 1020,0 16 0 0,0
19.02.2018 05:00:00 6,7 -3,3 10 6 22 12 ENE 1019,8 20 0 0,0
19.02.2018 04:00:00 7,1 -3,3 16 9 21 12 ENE 1019,9 20 0 0,0
19.02.2018 03:00:00 6,9 -2,7 8 4 19 10 ENE 1020,5 20 0 0,0
19.02.2018 02:00:00 6,6 -1,7 13 7 23 12 E 1020,5 20 0 0,0
19.02.2018 01:00:00 8,3 -2,2 12 6 17 9 E 1020,6 20 0 -
19.02.2018 00:00:00 9,5 -2,2 12 7 16 9 E 1020,8 20 0 0,0
18.02.2018 23:00:00 10,0 -1,4 11 6 19 10 E 1020,8 20 0 0,0
18.02.2018 22:00:00 11,3 -2,0 10 5 35 19 E 1020,7 20 0 0,0
18.02.2018 21:00:00 12,4 -1,4 22 12 35 19 NNE 1020,2 20 0 0,0
18.02.2018 20:00:00 13,4 0,0 25 13 35 19 N 1019,8 20 0 0,0
18.02.2018 19:00:00 14,6 0,0 20 11 33 18 NNE 1019,3 20 31 -
18.02.2018 18:00:00 15,9 0,4 23 13 31 17 NNE 1018,9 20 46 0,0
18.02.2018 17:00:00 16,2 2,3 21 11 29 16 NE 1018,7 20 25 0,0
18.02.2018 16:00:00 17,2 3,4 15 8 32 18 NE 1018,7 20 60 0,0
18.02.2018 15:00:00 17,1 4,8 19 11 30 16 ENE 1019,4 20 60 0,0
18.02.2018 14:00:00 16,1 4,5 19 10 32 17 ENE 1020,4 20 60 0,0
18.02.2018 13:00:00 15,1 5,3 19 10 30 16 NE 1021,0 20 60 -
18.02.2018 12:00:00 13,4 5,8 23 13 31 17 ENE 1021,7 20 60 0,0
18.02.2018 11:00:00 11,0 6,7 17 9 22 12 E 1022,3 20 60 0,0
18.02.2018 10:00:00 6,2 4,8 10 5 14 8 ENE 1023,1 10 60 0,0
18.02.2018 09:00:00 3,8 2,7 6 4 11 6 ENE 1023,5 3,0 7 0,0
18.02.2018 08:00:00 4,4 3,2 6 3 15 8 ENE - - 0 0,0
18.02.2018 07:00:00 3,5 2,1 4 2 9 5 NW 1023,0 0,2 0 -
18.02.2018 06:00:00 5,0 3,6 3 1 8 4 SE 1022,7 0,2 0 0,0
18.02.2018 05:00:00 5,5 3,9 3 1 9 5 SSE 1022,8 0,3 0 0,0
18.02.2018 04:00:00 6,3 4,6 5 3 7 4 ENE 1023,2 9 0 0,0
18.02.2018 03:00:00 6,7 4,6 7 4 8 4 ENE 1023,5 11 0 0,0
18.02.2018 02:00:00 8,1 5,1 3 1 6 3 N 1023,4 20 0 0,0
18.02.2018 01:00:00 8,9 5,5 2 1 6 4 ENE 1023,6 20 0 -
18.02.2018 00:00:00 9,6 5,1 5 3 6 3 E 1023,8 20 0 0,0
17.02.2018 23:00:00 9,9 5,6 3 2 8 4 S 1023,8 20 0 0,0
17.02.2018 22:00:00 10,3 5,6 5 3 8 5 NE 1023,6 20 0 0,0
17.02.2018 21:00:00 11,8 5,9 9 5 16 9 NW 1023,2 20 0 0,0
17.02.2018 20:00:00 13,1 5,3 5 3 19 10 W 1022,9 20 0 0,0
17.02.2018 19:00:00 13,8 5,1 13 7 20 11 NNW 1022,5 20 34 -
17.02.2018 18:00:00 14,7 6,5 14 7 20 11 W 1022,3 20 9 0,0
17.02.2018 17:00:00 14,7 4,6 16 9 22 12 W 1022,3 20 43 0,0
17.02.2018 16:00:00 15,8 7,3 16 9 25 13 W 1022,0 20 60 0,0
17.02.2018 15:00:00 17,1 8,3 15 8 25 13 SW 1022,1 20 60 0,0
17.02.2018 14:00:00 15,3 9,8 7 4 11 6 SW 1023,0 15 60 0,0
17.02.2018 13:00:00 11,1 10,0 3 2 8 5 WNW 1024,6 11 39 -
17.02.2018 12:00:00 8,1 7,0 2 1 13 7 NNW 1025,5 0,4 0 0,0
17.02.2018 11:00:00 6,2 5,1 7 4 15 8 E 1026,0 0,9 0 0,0
17.02.2018 10:00:00 5,8 4,8 10 6 18 10 E 1025,8 0,8 0 0,0
17.02.2018 09:00:00 5,4 4,3 16 9 20 11 ENE 1025,6 0,9 0 0,0
17.02.2018 08:00:00 6,0 5,0 13 7 16 9 ENE 1025,3 0,9 0 0,0
17.02.2018 07:00:00 6,5 5,5 9 5 12 6 ENE 1025,0 0,9 0 -
17.02.2018 06:00:00 7,2 5,9 3 1 9 5 NNE 1024,8 0,1 0 0,0
17.02.2018 05:00:00 7,4 6,2 3 1 6 3 SE 1024,6 0,9 0 0,0
17.02.2018 04:00:00 7,5 6,2 3 2 8 5 WNW 1024,7 0,1 0 0,0
17.02.2018 03:00:00 8,2 7,0 4 2 10 5 NW 1024,7 0,1 0 0,0
17.02.2018 02:00:00 8,4 6,5 9 5 15 8 W - - 0 0,0
17.02.2018 01:00:00 8,4 5,6 12 7 15 8 W 1025,1 20 0 -
17.02.2018 00:00:00 8,9 5,8 10 5 16 9 SW 1024,7 20 0 0,0
16.02.2018 23:00:00 9,9 4,8 8 5 11 6 SSW 1024,3 20 0 0,0
16.02.2018 22:00:00 12,0 5,8 3 1 11 6 N 1023,6 20 0 0,0
16.02.2018 21:00:00 14,2 4,8 11 6 19 10 NW 1022,8 20 0 0,0
16.02.2018 20:00:00 14,2 6,2 16 9 21 11 WNW 1022,5 20 0 0,0
16.02.2018 19:00:00 16,5 6,4 15 8 22 12 W 1021,9 20 54 -
16.02.2018 18:00:00 19,0 4,3 16 9 24 13 WSW 1021,2 20 60 0,0
16.02.2018 17:00:00 19,6 4,8 16 9 25 14 W 1021,0 20 60 0,0
16.02.2018 16:00:00 20,1 6,8 11 6 21 12 SW 1021,0 20 60 0,0
16.02.2018 15:00:00 19,7 6,4 9 5 17 9 S 1021,4 20 60 0,0
16.02.2018 14:00:00 18,5 8,1 8 4 15 8 WSW 1022,5 20 60 0,0
16.02.2018 13:00:00 17,0 8,7 4 2 13 7 E 1023,8 20 60 -
16.02.2018 12:00:00 14,8 9,2 8 5 14 8 E 1024,8 20 60 0,0
16.02.2018 11:00:00 11,2 8,1 5 3 10 6 E 1025,6 20 60 0,0
16.02.2018 10:00:00 8,1 6,4 7 4 14 8 ENE 1025,9 8 56 0,0
16.02.2018 09:00:00 5,2 3,8 9 5 12 6 E 1026,2 7 20 0,0
16.02.2018 08:00:00 5,5 4,1 6 3 11 6 E 1025,7 3,1 0 0,0
16.02.2018 07:00:00 5,4 3,9 6 4 13 7 E 1025,5 5 0 -
16.02.2018 06:00:00 6,4 4,6 8 4 15 8 E 1025,6 8 0 0,0
16.02.2018 05:00:00 6,8 5,1 10 6 16 9 ENE 1025,5 7 0 0,0
16.02.2018 04:00:00 7,7 5,3 11 6 16 9 E 1025,8 6 0 0,0
16.02.2018 03:00:00 8,1 5,9 15 8 18 10 ENE 1025,9 7 0 0,0
16.02.2018 02:00:00 8,2 5,8 12 6 17 9 ENE 1026,1 6 0 0,0
16.02.2018 01:00:00 10,0 6,7 9 5 13 7 NE 1026,2 20 0 -
16.02.2018 00:00:00 10,3 6,8 10 5 13 7 ENE 1026,3 12 0 0,0
15.02.2018 23:00:00 10,7 6,8 8 4 13 7 ENE 1026,2 20 0 0,0
15.02.2018 22:00:00 11,8 7,3 10 5 12 7 ENE 1025,8 20 0 0,0
15.02.2018 21:00:00 12,7 7,4 8 5 14 7 E 1025,4 20 0 0,0
15.02.2018 20:00:00 14,1 7,4 12 6 14 8 N 1025,0 20 0 0,0
15.02.2018 19:00:00 15,1 7,8 9 5 16 8 NNE 1024,8 20 43 -
15.02.2018 18:00:00 15,9 7,7 10 5 17 9 N 1024,7 20 31 0,0
15.02.2018 17:00:00 17,0 7,8 5 3 21 11 N 1024,7 20 33 0,0
15.02.2018 16:00:00 18,8 8,1 6 3 16 9 WNW 1024,3 20 60 0,0
15.02.2018 15:00:00 18,5 7,6 5 3 16 9 S 1024,9 20 60 0,0
15.02.2018 14:00:00 16,9 7,8 6 4 12 7 W 1025,6 20 60 0,0
15.02.2018 13:00:00 15,1 7,1 5 3 19 11 NE 1026,6 20 60 -
15.02.2018 12:00:00 14,0 7,3 14 8 23 13 ENE 1026,9 20 60 0,0
15.02.2018 11:00:00 12,6 6,8 15 8 21 11 ENE 1027,0 20 60 0,0
15.02.2018 10:00:00 10,5 7,4 8 5 14 8 E 1026,9 13 60 0,0
15.02.2018 09:00:00 8,1 6,5 7 4 10 5 ENE 1027,2 4,1 8 0,0
15.02.2018 08:00:00 8,6 6,1 3 1 5 3 ENE 1026,8 18 0 0,0
15.02.2018 07:00:00 8,6 6,2 4 2 5 3 ENE 1026,6 20 0 -
15.02.2018 06:00:00 8,0 5,9 3 2 11 6 WSW 1026,6 17 0 0,0
15.02.2018 05:00:00 8,1 5,8 10 5 11 6 SSW 1026,5 12 0 0,0
15.02.2018 04:00:00 9,0 6,5 5 3 9 5 WSW 1026,3 18 0 0,0
15.02.2018 03:00:00 - - - - - - - - - - -
15.02.2018 02:00:00 10,4 6,8 4 2 11 6 WSW 1025,8 20 0 0,0

tt = Température de l'air
td = dewpoint
ff = Vitesse du vent
fx = gusts
dd = Direction du vent
ppp = reduced air pressure
vv = visibility
sd = Ensoleillement
rr = Quantités de précipitations

stations d'obs. à proximité